Bryce Canyon, UT

6:12 AM MST on December 06, 2019 (GMT -0700)
Bryce Canyon

Weather History for KBCE - October, 2019

Change the Weather History Date:

Tuesday, October 1, 2019

  Actual Average Record
Temperature  
Mean Temperature 38 °F -  
Max Temperature 60 °F 66 °F 79 °F (1980)
Min Temperature 16 °F 32 °F 16 °F (2019)
Degree Days  
Heating Degree Days 28    
Moisture  
Dew Point 8 °F    
Average Humidity 35    
Maximum Humidity 68    
Minimum Humidity 11    
Precipitation  
Precipitation 0.00 in - - ()
Sea Level Pressure  
Sea Level Pressure 29.83 in    
Wind  
Wind Speed 8 mph (SW)    
Max Wind Speed 21 mph    
Max Gust Speed 28 mph    
Visibility 10 miles    
Events      
Averages and records for this station are not official NWS values.
T = Trace of Precipitation, MM = Missing Value Source: NWS Daily Summary

Daily Weather History Graph

Daily Weather History Graph

Search for Another Location

Airport or City:

Astronomy

Oct. 01, 2019 Rise Set
Actual Time 7:24 AM MDT 7:11 PM MDT
Civil Twilight 6:57 AM MDT 7:38 PM MDT
Nautical Twilight 6:27 AM MDT 8:08 PM MDT
Astronomical Twilight 5:56 AM MDT 8:38 PM MDT
Moon 10:41 AM MDT (10/1) 9:31 PM MDT (10/1)
Length of Visible Light 12h 40m
Length of Day
11h 47m
Waxing Crescent, 12% of the Moon is Illuminated
Oct 1
Waxing Crescent
Oct 5
First Quarter
Oct 13
Full
Oct 21
Last Quarter
Oct 27
New

Hourly Weather History & Observations

Time (MDT) Temp. Windchill Dew Point Humidity Pressure Visibility Wind Dir Wind Speed Gust Speed Precip Events Conditions
12:53 AM 24.1 °F 17.0 °F 9.0 °F 53% 29.78 in 10.0 mi WSW 5.8 mph - N/A   Clear
1:53 AM 25.0 °F 19.3 °F 10.0 °F 53% 29.76 in 10.0 mi SW 4.6 mph - N/A   Clear
2:53 AM 21.0 °F 16.2 °F 8.1 °F 57% 29.77 in 10.0 mi WSW 3.5 mph - N/A   Clear
3:53 AM 19.9 °F 13.4 °F 8.1 °F 60% 29.77 in 10.0 mi WSW 4.6 mph - N/A   Clear
4:53 AM 19.0 °F 11.1 °F 8.1 °F 62% 29.78 in 10.0 mi West 5.8 mph - N/A   Clear
5:53 AM 17.1 °F 11.7 °F 8.1 °F 68% 29.79 in 10.0 mi WSW 3.5 mph - N/A   Clear
6:53 AM 16.0 °F 7.4 °F 7.0 °F 68% 29.81 in 10.0 mi WSW 5.8 mph - N/A   Clear
7:53 AM 19.0 °F 12.3 °F 8.1 °F 62% 29.87 in 10.0 mi SW 4.6 mph - N/A   Clear
8:53 AM 34.0 °F 31.0 °F 10.9 °F 38% 29.84 in 10.0 mi WSW 3.5 mph - N/A   Clear
9:53 AM 46.9 °F - 10.0 °F 22% 29.81 in 10.0 mi Calm Calm - N/A   Clear
10:53 AM 50.0 °F - 10.9 °F 21% 29.83 in 10.0 mi SE 9.2 mph 17.3 mph N/A   Clear
11:53 AM 52.0 °F - 12.9 °F 21% 29.82 in 10.0 mi SE 15.0 mph 19.6 mph N/A   Clear
12:53 PM 57.0 °F - 10.9 °F 16% 29.78 in 10.0 mi SE 20.7 mph 25.3 mph N/A   Clear
1:53 PM 57.9 °F - 8.1 °F 14% 29.78 in 10.0 mi SSE 18.4 mph - N/A   Clear
2:33 PM 59.0 °F - 7.0 °F 13% 29.96 in 10.0 mi WSW 15.0 mph 26.5 mph N/A   Clear
2:53 PM 59.0 °F - 3.9 °F 11% 29.80 in 10.0 mi SW 19.6 mph 25.3 mph N/A   Clear
3:53 PM 59.0 °F - 3.9 °F 11% 29.80 in 10.0 mi SSW 18.4 mph 27.6 mph N/A   Clear
4:53 PM 57.9 °F - 5.0 °F 12% 29.81 in 10.0 mi SW 16.1 mph 25.3 mph N/A   Clear
5:53 PM 57.0 °F - 3.0 °F 11% 29.83 in 10.0 mi SSW 15.0 mph 21.9 mph N/A   Clear
6:53 PM 53.1 °F - 7.0 °F 16% 29.86 in 10.0 mi SW 13.8 mph - N/A   Clear
7:53 PM 39.9 °F 36.7 °F 6.1 °F 25% 29.92 in 10.0 mi SW 4.6 mph - N/A   Clear
8:53 PM 33.1 °F 26.9 °F 6.1 °F 32% 29.90 in 10.0 mi WSW 6.9 mph - N/A   Clear
9:53 PM 32.0 °F 25.6 °F 9.0 °F 38% 29.86 in 10.0 mi West 6.9 mph - N/A   Clear
10:53 PM 27.0 °F 19.5 °F 9.0 °F 47% 29.88 in 10.0 mi WSW 6.9 mph - N/A   Clear
11:53 PM 27.0 °F 18.7 °F 9.0 °F 47% 29.89 in 10.0 mi West 8.1 mph - N/A   Clear